Location: Haulchin
(50.3172°N, 3.4360°E)
Time: 07:07:09
(UTC+00:00)

Lacrosse 5 rocket - Pass Details

Date: 23 May 2024
Orbit: 445 x 572 km, 57.0° (Epoch: 19 June)

Event Time Altitude Azimuth Distance (km) Brightness Sun altitude
Rises 01:20:10 0° 302° (WNW) 2,742 5.0 -15.9°
Reaches altitude 10° 01:22:27 10° 300° (WNW) 1,827 4.0 -15.7°
Maximum altitude 01:26:34 71° 218° (SW) 569 1.1 -15.4°
Drops below altitude 10° 01:30:29 10° 133° (SE) 1,743 3.7 -15.2°
Sets 01:32:38 0° 132° (SE) 2,604 4.6 -15.0°
